This is the latest recevied weather packets stored in our database for station/object VK4AB-13. If no packets are shown the sender has not sent any weather packets the latest 1 day(s).
| Time | Temp. | Humidity | Pressure | Rain* | Wind** | Luminosity | Snow |
|---|---|---|---|---|---|---|---|
| 1778051625 | 23.33° C | 76% | 1015.3 hPa | 0 mm | - | 0 W/m² | - |
| 1778051325 | 23.33° C | 76% | 1015.2 hPa | 0 mm | - | 5 W/m² | - |
| 1778051025 | 23.89° C | 75% | 1015.2 hPa | 0 mm | - | 7 W/m² | - |
| 1778050725 | 23.89° C | 75% | 1015.1 hPa | 0 mm | - | 14 W/m² | - |
| 1778050425 | 23.89° C | 74% | 1015 hPa | 0 mm | - | 19 W/m² | - |
| 1778050125 | 23.89° C | 74% | 1015.1 hPa | 0 mm | - | 30 W/m² | - |
| 1778049825 | 23.89° C | 73% | 1015 hPa | 0 mm | - | 33 W/m² | - |
| 1778049525 | 24.44° C | 73% | 1014.9 hPa | 0 mm | - | 42 W/m² | - |
| 1778048625 | 24.44° C | 71% | 1014.9 hPa | 0 mm | - | 81 W/m² | - |
| 1778048325 | 24.44° C | 71% | 1014.9 hPa | 0 mm | - | 109 W/m² | - |
| 1778046525 | 24.44° C | 69% | 1014.8 hPa | 0 mm | - | 83 W/m² | - |
| 1778046225 | 24.44° C | 68% | 1014.9 hPa | 0 mm | - | 72 W/m² | - |
| 1778045925 | 25° C | 68% | 1014.8 hPa | 0 mm | - | 93 W/m² | - |
| 1778045025 | 25.56° C | 68% | 1014.7 hPa | 0 mm | - | 188 W/m² | - |
| 1778044725 | 26.11° C | 67% | 1014.7 hPa | 0 mm | - | 188 W/m² | - |
| 1778044425 | 25.56° C | 68% | 1014.7 hPa | 0 mm | - | 517 W/m² | - |
| 1778044182 | 25.56° C | 69% | 1014.7 hPa | 0 mm | - | 466 W/m² | - |
| 1778043525 | 25.56° C | 69% | 1014.8 hPa | 0 mm | - | 169 W/m² | - |
| 1778043225 | 25.56° C | 68% | 1014.8 hPa | 0 mm | - | 141 W/m² | - |
| 1778042625 | 25.56° C | 69% | 1014.7 hPa | 0 mm | - | 454 W/m² | - |
| 1778042325 | 25.56° C | 68% | 1014.7 hPa | 0 mm | - | 512 W/m² | - |
| 1778042025 | 26.11° C | 68% | 1014.8 hPa | 0 mm | - | 547 W/m² | - |
| 1778041725 | 26.67° C | 67% | 1014.7 hPa | 0 mm | - | 163 W/m² | - |
| 1778041425 | 26.67° C | 67% | 1014.8 hPa | 0 mm | - | 279 W/m² | - |
| 1778041125 | 26.11° C | 67% | 1014.8 hPa | 0 mm | - | 547 W/m² | - |
* Rain latest hour (hover to see other rain measurements)
** Current wind speed in m/s (hover to see current wind gust speed)